Wind_Speed
5 7 11 14 18 19 19 19 15 12 10 18 17 13 8 6 6 4 2 1 2 3 4 5 7 9 11 11 12 12 10 8 12 11 14 12 6 4 5 8 9 9 12
9 9 12 14 15 17 16 15 15 18 20 18 14 7 8 6 6 3 2 1 3 5 8 9 12 14 12 11 9 6 7 7 8 10 12 5 8 9 10 15 11 14 13
13 12 15 17 14 14 17 19 20 19 15 9 8 7 7 7 3 1 1 4 9 15 16 16 14 15 12 6 3 6 8 10 8 7 6 5 5 17 10 16 18 15 19
12 14 14 14 19 16 18 17 17 13 10 7 4 4 3 2 2 2 4 6 10 12 12 14 13 15 6 1 3 5 7 8 10 9 5 8 12 7 9 14 17 18 21
9 12 16 18 20 22 19 16 12 11 8 8 9 10 10 9 6 5 6 9 12 15 16 16 17 13 4 1 2 3 5 6 6 6 8 8 10 10 9 12 17 19 18
6 10 10 13 16 14 16 18 19 21 20 19 18 17 15 11 8 8 11 12 17 20 21 19 15 6 4 1 1 4 6 7 4 4 5 7 9 11 12 10 15 19 22
7 6 8 8 8 13 16 20 20 20 18 16 14 12 10 8 9 12 13 18 18 19 18 20 11 9 5 2 5 7 5 4 5 5 7 7 10 11 12 13 16 15 25
8 7 7 9 11 15 19 18 17 17 15 14 13 11 10 9 10 14 17 18 19 20 22 16 13 9 3 7 12 8 6 7 8 9 9 10 12 11 12 12 14 13 20
9 9 11 12 13 14 17 17 15 16 15 13 9 8 8 9 11 15 19 21 23 23 19 12 14 11 10 9 10 10 10 10 10 12 12 12 13 12 10 11 11 15 14
10 10 12 11 11 14 16 14 15 15 12 9 7 7 8 11 14 19 21 22 21 20 13 12 13 12 13 8 11 13 12 13 13 13 13 14 12 11 12 13 15 17 21
12 11 11 11 11 14 13 14 12 9 6 5 5 7 9 11 15 18 20 20 20 19 15 13 13 12 10 12 18 14 14 15 14 13 12 13 12 14 16 17 19 20 21
13 13 13 13 13 12 14 12 6 3 2 0 3 6 8 11 13 16 18 19 19 17 15 15 14 11 15 20 17 10 12 13 13 11 11 13 14 18 19 20 21 21 22
13 12 13 14 14 14 11 7 3 7 6 3 4 6 8 11 13 15 18 20 19 17 16 13 15 19 16 15 9 10 12 10 8 9 11 15 17 20 22 22 24 22 22
13 11 10 13 12 11 9 4 11 12 7 5 7 8 9 12 14 17 19 19 19 17 14 15 15 13 8 9 9 9 7 6 8 10 14 16 18 20 22 23 21 22 20
12 10 9 13 13 14 15 13 13 10 8 8 11 11 12 13 15 18 22 20 19 16 14 15 13 9 10 10 5 3 5 8 12 15 16 16 17 19 20 20 21 22 22
12 11 12 15 18 19 14 12 12 9 8 11 13 13 14 15 17 19 23 21 18 16 14 10 9 12 8 3 3 6 7 10 13 15 17 18 16 15 17 18 18 19 21
13 12 13 15 17 14 13 12 10 7 9 13 14 14 17 17 17 19 20 19 17 16 12 10 10 4 1 2 6 9 8 11 13 15 16 16 15 16 16 17 20 20 18
12 11 13 13 9 9 9 8 6 7 12 13 13 17 18 17 16 18 17 17 16 12 8 8 3 3 1 5 8 12 10 11 12 13 14 15 16 15 17 21 20 18 18
13 12 11 8 7 7 7 4 3 6 9 13 16 17 17 16 14 15 15 15 12 10 7 4 4 4 1 5 9 10 10 11 13 13 14 14 15 16 19 20 19 19 20
10 9 7 9 10 8 4 1 3 8 10 12 14 16 15 15 16 15 14 14 12 11 9 5 5 4 3 6 8 9 9 12 14 14 14 13 14 17 19 19 18 19 19
16 17 15 11 10 7 2 2 6 7 9 14 17 15 14 17 16 12 12 13 11 9 7 7 5 5 6 6 7 8 8 11 14 14 14 13 15 18 18 16 14 17 20
17 17 16 13 8 2 2 4 5 7 12 14 14 12 15 16 9 9 10 10 9 6 7 7 7 8 9 8 8 8 8 9 12 13 13 14 17 17 15 13 14 15 14
16 12 13 10 4 1 3 4 5 11 13 14 12 11 14 11 9 10 9 8 6 5 6 7 8 8 9 9 9 10 9 10 11 11 13 14 15 15 12 12 13 12 12
11 8 7 5 2 2 4 6 9 13 13 10 10 13 13 14 12 11 9 7 6 6 7 9 10 9 8 9 9 9 8 9 10 12 12 11 12 12 11 11 11 11 11
10 9 6 4 2 4 6 8 11 11 7 8 10 14 15 15 13 12 10 7 7 8 9 10 10 10 10 10 10 8 8 8 10 13 9 9 10 12 12 11 11 12 12
10 6 4 2 3 5 8 9 9 7 7 9 10 12 12 13 12 11 9 11 11 12 12 13 14 15 14 12 10 9 9 9 11 9 9 9 9 10 12 12 12 11 13
Wind_Direction
97 108 114 124 127 128 135 140 135 143 139 135 140 155 174 156 150 138 108 64 30 16 22 16 9 7 0 348 336 329 332 338 348 330 320 308 259 238 293 320 319 324 333
124 123 122 119 123 136 146 150 151 142 142 147 163 178 171 178 172 147 142 73 30 30 23 18 356 344 334 326 321 339 346 344 358 341 315 311 293 288 304 314 317 316 325
130 132 130 135 137 142 139 136 137 146 152 160 155 153 159 159 161 121 30 24 17 2 349 343 328 329 318 316 11 18 10 348 352 9 335 314 302 321 295 306 313 315 319
137 133 133 128 124 128 133 133 135 135 130 135 141 144 116 114 61 56 12 2 359 353 339 328 324 328 322 83 37 25 21 2 338 335 317 303 298 303 303 299 304 309 314
134 137 143 148 137 139 135 131 122 110 94 75 62 57 57 59 52 18 338 320 334 340 329 321 316 308 235 199 57 40 40 22 354 333 316 308 306 297 302 303 314 310 310
153 150 150 133 125 125 130 119 108 94 91 84 75 67 60 51 30 358 340 331 324 321 319 312 304 238 209 162 93 36 346 314 297 308 303 314 316 313 305 301 311 309 313
163 163 139 120 118 124 119 110 105 94 89 83 74 64 52 26 360 347 335 326 316 312 311 307 264 208 195 293 309 303 313 276 283 301 303 297 297 293 294 301 306 307 309
173 165 135 124 121 123 116 112 105 101 90 78 68 52 33 16 356 338 327 320 314 308 304 289 223 192 252 301 298 281 278 279 282 287 282 287 294 286 288 291 299 302 300
174 155 133 128 129 126 123 119 111 105 97 87 75 63 38 10 352 344 339 333 326 318 307 254 215 234 297 295 291 287 281 283 285 282 285 284 294 288 281 284 285 292 297
167 152 144 143 141 133 130 126 119 107 97 92 73 47 22 4 354 347 340 337 332 325 300 248 237 264 298 294 295 288 282 278 279 285 286 283 285 281 282 288 289 288 290
168 156 151 150 142 139 137 130 111 101 93 65 40 20 8 357 348 342 338 337 332 329 302 262 255 279 275 275 298 270 279 278 281 285 284 281 282 285 289 291 293 291 291
160 154 157 155 154 151 149 132 127 353 28 274 8 360 353 342 334 336 335 331 326 321 309 285 281 281 286 292 276 271 286 279 284 289 287 285 291 293 296 298 296 293 293
156 162 164 167 165 164 153 141 358 295 236 260 329 330 327 328 327 330 332 328 322 317 313 297 291 295 290 282 264 288 295 291 293 296 293 297 300 300 302 300 297 295 295
167 172 174 175 176 173 168 263 265 237 242 270 305 303 313 318 319 328 329 326 324 317 311 303 298 298 281 282 289 304 298 300 304 301 303 305 303 302 303 301 295 298 294
177 181 182 183 185 192 222 253 240 236 254 285 289 290 308 307 315 323 326 324 323 320 313 310 299 299 310 299 293 309 319 316 309 310 312 309 305 304 301 299 299 300 296
189 190 192 194 200 210 229 235 233 247 270 286 287 292 306 306 310 318 323 320 315 313 303 311 298 291 284 263 310 333 328 319 318 317 316 314 316 314 309 304 300 294 294
193 195 198 200 212 230 235 234 239 255 286 295 293 294 312 310 304 316 322 318 313 309 293 291 292 284 145 318 337 329 331 325 322 320 320 321 319 319 317 312 304 301 301
195 195 194 204 222 227 219 223 229 286 305 303 302 307 312 305 303 313 318 319 319 322 309 296 269 183 241 324 335 334 333 326 324 324 322 319 319 320 320 315 315 314 314
192 189 192 196 183 178 176 189 298 315 315 315 315 313 311 303 302 309 312 317 313 318 306 267 206 197 265 320 336 338 334 329 328 327 323 321 319 322 323 323 319 320 316
174 159 156 148 140 133 149 148 316 317 323 326 319 316 313 305 303 300 304 310 304 298 285 226 215 235 281 316 329 342 333 329 330 327 325 325 325 323 329 325 320 318 323
149 147 138 137 135 135 151 315 321 320 315 313 310 308 310 309 299 288 301 305 304 292 244 227 234 262 289 299 317 331 330 327 326 327 328 329 331 329 328 327 323 322 323
136 134 130 131 139 162 322 315 300 309 311 314 312 314 324 319 297 291 300 304 301 259 231 223 250 271 277 279 298 313 316 320 321 323 324 325 328 330 328 331 326 325 329
134 136 134 132 147 194 291 269 285 311 314 317 318 317 324 318 297 295 294 291 271 233 225 248 270 273 272 268 282 300 308 311 320 317 317 319 328 333 334 332 336 343 341
116 126 126 127 172 273 301 292 296 309 314 317 319 314 322 321 296 289 283 268 241 229 255 275 279 278 271 266 272 286 301 309 321 324 324 326 332 340 340 344 345 347 344
137 172 157 168 230 300 310 308 311 314 315 313 316 314 315 315 301 283 265 247 242 258 276 285 277 269 271 269 265 274 295 304 313 329 330 335 341 344 348 347 349 350 352
179 184 166 194 270 297 304 318 324 318 309 297 297 309 310 311 302 279 264 255 262 272 276 280 279 280 272 268 263 272 277 283 306 324 329 332 337 338 340 343 346 350 352
Height
840 840 840 841 842 846 848 851 854 857 858 860 863 865 867 867 867 867 867 867 867 868 868 867 867 865 864 863 861 859 857 856 853 851 849 846 843 843 842 841 840 838 835
840 841 840 842 844 845 849 851 853 855 858 861 862 864 864 865 866 867 867 867 868 868 868 867 867 865 864 862 860 858 856 855 853 852 847 840 841 840 840 839 837 835 833
839 843 844 844 846 847 850 853 855 858 861 861 862 864 865 866 867 868 868 867 868 867 866 866 865 864 862 859 858 857 857 855 854 852 852 844 838 841 837 836 835 834 831
842 844 847 848 846 852 854 856 857 858 860 861 863 864 865 866 867 868 868 869 868 867 866 864 862 860 858 857 856 855 855 854 854 853 852 851 849 844 836 835 833 832 830
843 845 849 849 847 848 852 854 858 857 861 862 864 864 865 866 868 869 869 868 867 865 863 861 858 856 855 854 854 854 852 853 853 852 851 848 846 844 843 835 831 829 828
843 846 848 849 848 853 854 853 856 858 861 862 864 866 868 869 870 870 869 867 864 862 859 856 855 853 853 853 852 851 850 850 849 848 848 847 845 843 842 837 830 827 824
843 847 847 849 851 851 853 854 856 859 862 864 866 867 869 869 869 869 867 864 861 858 855 852 851 850 850 851 850 849 847 846 847 846 845 844 843 842 840 836 829 826 821
844 846 848 850 851 853 853 856 857 860 862 865 866 867 868 869 869 867 865 862 858 854 851 848 848 848 848 848 848 846 845 845 844 843 842 841 839 838 836 833 830 823 820
842 845 849 851 854 856 856 858 860 861 862 863 866 867 868 868 867 865 862 858 855 851 847 845 845 845 845 844 844 844 842 842 841 840 839 837 836 834 832 830 829 826 816
842 846 850 854 855 856 858 860 861 861 862 864 866 866 866 865 864 862 859 856 852 848 846 845 845 843 843 842 841 840 839 839 838 836 835 833 832 830 828 827 825 823 819
840 846 850 854 855 857 860 861 861 861 862 863 864 864 864 863 861 859 857 853 850 847 844 843 842 841 840 839 838 836 835 835 834 832 831 830 828 827 825 823 820 817 815
839 845 850 853 856 858 858 858 860 861 860 862 862 863 862 860 859 857 855 852 848 845 842 841 839 837 837 835 833 832 831 831 829 828 828 826 825 823 820 817 814 812 810
839 845 849 852 855 855 855 857 859 860 861 860 860 860 859 859 857 855 852 849 845 842 839 838 836 834 833 830 829 828 828 827 826 826 825 823 820 817 814 812 809 806 803
837 842 846 849 851 852 853 854 856 858 859 858 857 857 857 856 854 851 848 845 842 838 836 834 833 831 829 828 826 824 824 825 824 823 821 818 816 813 809 807 804 801 798
835 839 842 844 847 848 849 850 853 855 856 855 855 854 854 852 850 848 845 842 838 835 833 830 829 828 826 825 823 821 822 822 822 820 817 814 811 808 805 803 799 796 793
830 834 837 840 841 843 845 846 849 852 852 852 851 851 850 848 846 844 841 837 835 832 829 827 825 824 823 823 821 820 821 820 818 815 812 809 806 803 801 798 795 793 788
825 829 831 835 838 840 841 844 846 848 848 848 847 847 845 843 842 840 837 833 830 827 825 823 822 821 822 821 819 819 819 817 815 812 809 805 803 800 797 793 790 786 782
820 824 827 831 834 836 838 841 843 844 844 844 843 842 840 838 837 835 833 829 826 823 821 820 819 820 819 819 818 817 816 814 812 809 806 803 800 797 794 789 785 780 777
817 821 824 828 831 833 835 838 839 840 841 840 839 838 836 834 832 831 828 826 823 821 819 818 818 818 818 817 816 815 814 812 809 806 804 801 797 794 791 786 781 777 773
815 820 824 826 829 831 834 835 837 837 836 836 835 834 832 830 828 826 824 822 820 818 817 817 816 816 816 815 814 813 812 810 807 804 801 798 795 792 788 784 779 775 770
811 816 821 827 829 830 832 833 834 834 834 833 832 830 828 825 822 820 819 818 816 815 814 815 815 814 813 813 812 811 810 809 805 802 798 795 792 789 785 781 777 773 769
811 814 819 823 827 828 830 831 831 831 830 829 827 825 822 819 817 817 815 814 813 812 812 813 813 812 811 810 810 809 808 806 804 800 797 793 790 786 782 779 775 771 767
811 816 817 820 824 825 826 827 827 827 825 824 822 821 820 817 815 814 812 811 810 810 811 811 810 809 808 807 807 806 805 804 801 798 795 791 787 783 780 777 773 768 765
813 816 818 820 823 823 823 823 823 822 820 820 819 819 816 813 811 810 808 807 807 808 808 807 806 806 805 804 804 803 802 801 798 795 792 788 786 782 779 775 772 768 764
811 814 816 818 820 821 821 820 819 817 817 817 816 815 813 810 807 806 805 804 804 805 805 804 803 802 801 801 800 800 800 798 796 793 790 788 785 782 778 775 772 768 764
812 816 814 816 817 817 817 816 814 814 814 814 813 809 807 806 804 802 802 801 801 801 801 800 799 798 797 797 797 796 796 795 793 791 789 786 784 781 778 775 772 768 765